Oxford, NC

8:11 AM EST on December 13, 2019 (GMT -0500)
Henderson-Oxford

Weather History for KHNZ - October, 2019

Change the Weather History Date:

Tuesday, October 22, 2019

  Actual Average (WUND) Record (WUND)
Temperature  
Mean Temperature 62 °F -  
Max Temperature 67 °F - - (-1)
Min Temperature 56 °F - - (-1)
Degree Days  
Heating Degree Days 4    
Growing Degree Days 12 (Base 50)    
Moisture  
Dew Point 57 °F    
Average Humidity 95    
Maximum Humidity 99    
Minimum Humidity 84    
Precipitation  
Precipitation 0.00 in - - ()
Sea Level Pressure  
Sea Level Pressure 29.97 in    
Wind  
Wind Speed 3 mph (SSE)    
Max Wind Speed 12 mph    
Max Gust Speed 18 mph    
Visibility 7 miles    
Events      
Averages and records for this station are not official NWS values.
T = Trace of Precipitation, MM = Missing Value Source: NWS Daily Summary

Daily Weather History Graph

Daily Weather History Graph

Search for Another Location

Airport or City:

Astronomy

Oct. 22, 2019 Rise Set
Actual Time 7:27 AM EDT 6:29 PM EDT
Civil Twilight 7:01 AM EDT 6:55 PM EDT
Nautical Twilight 6:31 AM EDT 7:25 PM EDT
Astronomical Twilight 6:01 AM EDT 7:55 PM EDT
Moon 12:49 AM EDT (10/22) 3:24 PM EDT (10/22)
Length of Visible Light 11h 54m
Length of Day
11h 01m
Last Quarter, 37% of the Moon is Illuminated
Oct 22
Last Quarter
Oct 27
New
Nov 4
First Quarter
Nov 12
Full
Nov 19
Last Quarter

Hourly Weather History & Observations

Time (EDT) Temp. Dew Point Humidity Pressure Visibility Wind Dir Wind Speed Gust Speed Precip Events Conditions
12:15 AM 56.8 °F 54.9 °F 93% 30.08 in 10.0 mi Calm Calm - N/A   Overcast
12:35 AM 56.8 °F 54.7 °F 92% 30.07 in 10.0 mi Calm Calm - N/A   Overcast
12:55 AM 57.2 °F 55.0 °F 92% 30.07 in 10.0 mi Calm Calm - N/A   Overcast
1:15 AM 56.8 °F 55.0 °F 94% 30.07 in 10.0 mi SSE 6.9 mph - N/A   Overcast
1:35 AM 57.0 °F 54.9 °F 92% 30.07 in 10.0 mi Calm Calm - N/A   Overcast
1:55 AM 56.8 °F 55.0 °F 94% 30.06 in 10.0 mi South 5.8 mph - N/A   Overcast
2:15 AM 56.8 °F 55.4 °F 95% 30.06 in 10.0 mi South 3.5 mph - N/A   Overcast
2:35 AM 56.7 °F 55.4 °F 96% 30.04 in 10.0 mi Calm Calm - N/A   Overcast
2:55 AM 56.7 °F 55.4 °F 96% 30.03 in 7.0 mi Calm Calm - N/A   Overcast
3:15 AM 56.5 °F 55.6 °F 97% 30.03 in 5.0 mi Calm Calm - N/A   Overcast
3:35 AM 56.5 °F 55.8 °F 97% 30.02 in 2.5 mi SSE 8.1 mph - N/A   Overcast
3:55 AM 56.5 °F 55.8 °F 97% 30.00 in 2.0 mi SSE 3.5 mph - N/A   Overcast
4:15 AM 56.5 °F 55.9 °F 98% 30.00 in 2.5 mi South 8.1 mph - N/A   Overcast
4:35 AM 56.7 °F 56.3 °F 99% 30.00 in 2.5 mi SSE 6.9 mph - N/A   Overcast
4:55 AM 56.7 °F 56.3 °F 99% 30.00 in 2.0 mi South 8.1 mph - N/A   Overcast
5:15 AM 56.7 °F 56.3 °F 99% 29.99 in 2.0 mi SSE 8.1 mph - N/A   Overcast
5:35 AM 56.7 °F 56.3 °F 99% 29.99 in 2.5 mi Calm Calm - N/A   Overcast
5:55 AM 56.8 °F 56.3 °F 98% 29.98 in 3.0 mi SSE 5.8 mph - N/A   Overcast
6:15 AM 56.8 °F 56.3 °F 98% 29.98 in 4.0 mi Calm Calm - N/A   Overcast
6:35 AM 56.8 °F 56.3 °F 98% 29.98 in 5.0 mi Calm Calm - N/A   Overcast
6:55 AM 57.0 °F 56.3 °F 97% 29.98 in 3.0 mi Calm Calm - N/A   Overcast
7:15 AM 57.2 °F 56.5 °F 97% 29.98 in 3.0 mi Calm Calm - N/A   Overcast
7:35 AM 57.2 °F 56.5 °F 97% 29.97 in 5.0 mi Calm Calm - N/A   Overcast
7:55 AM 57.2 °F 56.7 °F 98% 29.98 in 3.0 mi Calm Calm - N/A   Overcast
8:35 AM 57.6 °F 57.0 °F 98% 29.97 in 4.0 mi Calm Calm - N/A   Overcast
8:55 AM 57.7 °F 57.2 °F 98% 29.97 in 4.0 mi Calm Calm - N/A   Overcast
9:15 AM 58.1 °F 57.2 °F 97% 29.97 in 7.0 mi SSE 8.1 mph - N/A   Overcast
9:35 AM 59.0 °F 57.4 °F 94% 29.95 in 10.0 mi SSE 8.1 mph - N/A   Overcast
9:55 AM 59.5 °F 57.6 °F 93% 29.95 in 10.0 mi SSE 8.1 mph - N/A   Overcast
10:15 AM 59.7 °F 57.6 °F 93% 29.94 in 10.0 mi SSE 10.4 mph - N/A   Overcast
1:15 PM 66.7 °F 61.9 °F 84% 29.84 in 10.0 mi South 11.5 mph 18.4 mph N/A   Overcast
1:35 PM 67.1 °F 62.2 °F 84% 29.83 in 10.0 mi SSE 8.1 mph - N/A   Overcast
1:55 PM 67.3 °F 62.6 °F 85% 29.81 in 10.0 mi SSE 9.2 mph - N/A   Overcast
2:15 PM 66.9 °F 63.5 °F 89% 29.80 in 10.0 mi Calm Calm - N/A   Overcast
2:35 PM 67.6 °F 63.5 °F 87% 29.79 in 10.0 mi SSE 8.1 mph - N/A   Overcast
10:55 PM 57.9 °F 57.2 °F 97% 29.90 in 10.0 mi Calm Calm - N/A   Scattered Clouds
11:15 PM 57.6 °F 57.0 °F 98% 29.90 in 10.0 mi Calm Calm - N/A   Scattered Clouds
11:35 PM 57.0 °F 56.5 °F 98% 29.91 in 10.0 mi Calm Calm - N/A   Scattered Clouds